Location: Cisewo
(53.3833°N, 14.9000°E)
Time: 12:12:35
(UTC+00:00)

RESURS DK-1 - Pass Details

Date: 18 April 2021
Orbit: 553 x 563 km, 69.9° (Epoch: 16 May)

Event Time Altitude Azimuth Distance (km) Brightness Sun altitude
Rises 20:17:53 0° 228° (SW) 2,732 5.9 -16.9°
Reaches altitude 10° 20:20:07 10° 234° (SW) 1,842 5.1 -17.1°
Maximum altitude 20:24:08 49° 310° (NW) 728 3.3 -17.5°
Drops below altitude 10° 20:28:10 10° 26° (NNE) 1,861 5.3 -17.9°
Sets 20:30:27 0° 32° (NNE) 2,762 6.1 -18.1°
